Date,TemperatureHighF,TemperatureAvgF,TemperatureLowF,DewpointHighF,DewpointAvgF,DewpointLowF,HumidityHigh,HumidityAvg,HumidityLow,PressureMaxIn,PressureMinIn,WindSpeedMaxMPH,WindSpeedAvgMPH,GustSpeedMaxMPH,PrecipitationSumIn
2013-1-1,29.5,22.3,9.3,20.0,5.5,-10.6,83,50,33,29.47,29.23,20,6,20,0.00
2013-1-2,20.3,8.1,-1.3,0.0,-11.7,-20.2,45,39,37,29.62,29.41,31,5,31,0.00
2013-1-3,21.4,8.7,-0.9,0.1,-11.0,-20.4,44,39,37,29.68,29.53,12,2,12,0.00
2013-1-4,32.2,19.1,2.3,17.8,4.1,-14.6,68,52,44,29.53,29.32,22,5,22,0.00
2013-1-5,32.9,26.4,11.3,18.7,8.7,-3.3,62,47,35,29.88,29.32,26,5,26,0.00
2013-1-6,29.3,21.0,10.4,19.7,10.7,-4.3,79,64,51,29.85,29.53,16,1,16,0.00
2013-1-7,24.8,19.2,11.5,20.3,7.8,-1.5,84,62,44,30.00,29.56,12,1,12,0.00
2013-1-8,37.0,27.3,10.8,22.7,14.2,0.0,87,59,42,29.94,29.77,34,4,34,0.00
2013-1-9,39.7,30.2,15.8,34.0,21.8,9.6,88,71,56,30.00,29.47,17,2,17,0.00
2013-1-10,43.3,36.3,26.4,24.1,18.5,12.0,68,49,39,30.09,29.47,33,6,33,0.16
2013-1-11,37.8,29.8,21.4,21.3,14.0,9.5,62,52,39,30.12,29.85,11,1,11,0.00
2013-1-12,41.4,37.5,33.1,38.7,32.9,21.5,98,84,62,29.85,29.71,6,0,6,0.08
2013-1-13,46.4,40.8,36.9,45.9,40.2,36.2,98,98,98,29.77,29.53,16,2,16,0.00
2013-1-14,52.7,44.0,35.1,52.0,38.0,18.1,98,82,43,29.80,29.47,21,4,21,0.04
2013-1-15,36.9,32.6,26.8,24.8,17.5,13.3,74,54,42,29.91,29.77,11,0,11,0.00
2013-1-16,33.4,31.2,28.4,30.7,23.5,12.8,92,74,51,29.85,29.35,12,1,12,0.00
2013-1-17,38.5,27.4,13.3,31.3,17.2,-7.2,97,69,37,29.74,29.35,22,3,22,0.04
2013-1-18,14.9,9.8,3.9,-6.6,-11.2,-15.5,39,37,35,29.97,29.68,20,3,20,0.00
2013-1-19,36.0,26.9,7.7,21.4,11.1,-14.2,82,52,35,29.94,29.47,31,3,31,0.00
2013-1-20,45.5,38.0,23.4,32.0,20.5,2.1,77,51,32,29.47,29.06,37,9,37,0.16
2013-1-21,23.5,18.8,12.6,3.0,-3.7,-8.2,53,36,32,29.62,29.41,21,5,21,0.00
2013-1-22,16.5,12.1,7.3,4.7,-4.2,-10.2,59,47,43,29.56,29.35,21,1,21,0.00
2013-1-23,7.2,2.2,-2.2,-10.1,-14.7,-18.8,44,44,44,29.62,29.56,24,6,24,0.00
2013-1-24,10.9,3.0,-4.2,-6.7,-14.0,-20.6,44,44,44,29.65,29.47,30,8,30,0.00
2013-1-25,19.0,9.8,2.3,-4.1,-10.0,-14.8,44,40,34,29.74,29.62,19,4,19,0.00
2013-1-26,21.2,13.3,7.0,-3.4,-9.2,-14.3,39,35,33,29.68,29.53,17,2,17,0.00
2013-1-27,23.5,14.2,7.5,-0.7,-8.4,-15.0,39,35,33,29.97,29.68,19,3,19,0.00
2013-1-28,27.3,16.7,7.0,14.7,-5.2,-13.8,76,37,28,29.97,29.65,13,1,13,0.00
2013-1-29,34.5,25.5,12.0,28.2,17.2,6.2,82,71,52,29.80,29.62,10,0,10,0.00
2013-1-30,54.3,45.0,33.1,53.8,43.9,28.2,98,96,82,29.74,29.06,35,7,35,0.31
2013-1-31,56.1,54.1,53.1,55.4,53.6,52.5,98,98,97,29.06,28.59,43,15,43,0.08
2013-2-1,28.4,21.7,14.2,3.9,-1.8,-7.3,37,35,32,29.56,29.23,26,6,26,0.00
2013-2-2,26.4,18.8,11.5,8.2,-2.2,-9.7,55,39,32,29.74,29.56,17,4,17,0.00
2013-2-3,28.0,23.8,20.3,15.6,10.8,6.3,78,58,44,29.59,29.21,14,1,14,0.00
2013-2-4,28.2,20.9,14.9,7.0,1.3,-8.4,60,43,33,29.38,29.15,35,5,35,0.00
2013-2-5,23.5,15.4,7.2,-2.0,-7.6,-14.7,41,35,29,29.56,29.38,23,2,23,0.00
2013-2-6,35.4,22.4,11.5,15.9,3.2,-8.1,53,43,33,29.80,29.44,17,3,17,0.00
2013-2-7,18.3,11.4,7.5,-8.1,-12.9,-18.1,35,32,28,30.09,29.80,19,1,19,0.00
2013-2-8,18.9,12.3,7.5,12.3,-4.7,-18.1,75,50,29,30.09,29.41,17,3,17,0.00
2013-2-9,16.2,12.4,9.5,11.5,6.5,2.6,82,77,73,29.62,29.21,26,7,26,0.00
2013-2-10,33.1,18.4,8.8,25.0,10.4,-1.4,81,71,54,29.88,29.62,18,2,18,0.00
2013-2-11,38.7,25.8,6.4,37.3,19.9,-3.6,98,78,56,29.85,29.12,21,1,21,0.28
2013-2-12,43.5,36.3,31.6,36.5,27.1,20.6,98,73,44,29.29,29.03,26,4,26,0.00
2013-2-13,44.4,36.3,31.6,21.1,17.7,14.2,57,47,38,29.32,29.26,17,3,17,0.00
2013-2-14,40.3,31.5,22.8,18.0,14.9,10.9,66,51,35,29.53,29.23,17,1,17,0.00
2013-2-15,44.6,33.3,23.5,31.4,23.1,11.7,90,67,48,29.53,29.44,29,3,29,0.00
2013-2-16,35.6,32.0,24.6,32.5,28.2,19.9,95,86,71,29.47,29.29,11,0,11,0.00
2013-2-17,24.6,21.2,18.1,19.9,8.3,-0.1,82,57,43,29.29,28.67,30,8,30,0.00
2013-2-18,30.4,20.5,11.8,4.7,-1.4,-5.9,44,38,32,29.50,28.91,37,10,37,0.00
2013-2-19,41.5,28.8,13.3,40.5,10.6,-8.4,96,49,29,29.62,29.15,27,3,27,0.31
2013-2-20,42.8,35.5,27.1,42.3,22.7,8.1,98,63,41,29.15,28.94,36,6,36,0.24
2013-2-21,31.3,26.3,20.8,20.9,9.9,2.5,66,50,42,29.62,29.15,17,4,17,0.00
2013-2-22,39.4,30.7,24.4,20.0,14.3,11.7,63,51,38,29.88,29.62,17,1,17,0.00
2013-2-23,35.6,29.8,22.1,28.6,21.8,12.3,87,72,60,29.85,29.56,17,2,17,0.00
2013-2-24,31.8,30.0,27.1,29.5,27.4,24.6,92,90,83,29.56,29.32,11,0,11,0.00
2013-2-25,38.8,28.9,21.4,24.6,18.5,13.2,90,67,40,29.74,29.41,12,0,12,0.00
2013-2-26,41.9,32.7,25.0,26.0,21.0,17.0,82,63,42,29.88,29.74,14,1,14,0.00
2013-2-27,37.9,32.2,25.0,32.2,25.4,18.5,95,77,53,29.80,29.23,26,5,26,0.12
2013-2-28,41.0,38.1,32.4,40.5,37.5,31.9,98,98,95,29.24,29.06,26,3,26,0.51
2013-3-1,35.6,32.9,31.6,32.9,30.1,27.5,98,90,76,29.21,29.06,12,1,12,0.04
2013-3-2,38.7,33.9,31.1,31.7,29.0,22.8,94,83,54,29.18,29.12,12,1,12,0.12
2013-3-3,41.2,36.3,33.3,38.8,29.6,23.5,98,78,52,29.15,29.03,12,1,12,0.51
2013-3-4,33.8,32.8,31.3,31.8,25.4,19.9,93,74,60,29.18,29.00,17,4,17,0.00
2013-3-5,44.6,36.7,33.6,38.5,31.3,25.1,97,82,50,29.62,29.18,16,1,16,0.51
2013-3-6,37.8,34.6,32.4,32.5,24.0,18.2,91,66,51,29.80,29.62,26,8,26,0.51
2013-3-7,36.3,33.6,31.6,19.7,18.0,16.0,60,52,45,29.74,29.59,21,6,21,0.00
2013-3-8,46.0,36.0,30.0,21.4,17.2,14.7,69,47,32,29.71,29.56,20,6,20,0.00
2013-3-9,47.5,34.7,27.5,19.6,16.7,14.0,66,49,31,29.88,29.68,16,2,16,0.00
2013-3-10,41.0,31.8,22.8,26.6,20.6,16.5,80,64,43,29.94,29.83,12,2,12,0.00
2013-3-11,42.8,38.1,33.8,39.2,30.2,26.4,94,74,54,29.85,29.71,22,6,22,0.00
2013-3-12,48.0,44.4,40.6,47.3,42.3,38.8,98,92,77,29.71,29.29,26,5,26,0.47
2013-3-13,48.2,44.6,39.7,47.7,40.1,24.4,98,86,51,29.29,29.21,26,2,26,0.08
2013-3-15,36.3,32.2,24.6,9.5,6.8,4.4,52,34,30,29.26,29.15,16,4,16,0.00
2013-3-16,37.0,28.2,21.6,15.8,10.0,2.1,69,48,30,29.41,29.12,17,2,17,0.00
2013-3-17,32.4,23.7,16.7,6.1,1.2,-7.6,54,38,30,29.80,29.38,26,4,26,0.00
2013-3-18,36.3,23.9,10.2,9.1,-0.5,-11.4,46,34,24,29.91,29.77,17,2,17,0.00
2013-3-19,29.7,27.8,23.2,25.0,19.0,8.5,87,71,44,29.77,29.15,26,6,26,0.00
2013-3-20,35.6,27.3,19.4,20.2,16.1,12.6,87,65,41,29.21,29.09,22,5,22,0.00
2013-3-21,39.2,29.5,17.8,16.1,12.5,6.3,78,50,33,29.23,29.09,17,5,17,0.00
2013-3-22,40.1,30.2,21.2,18.5,12.3,8.6,80,49,32,29.12,29.06,20,3,20,0.08
2013-3-23,39.9,32.2,24.1,17.5,13.0,7.1,52,45,37,29.09,28.94,27,9,27,0.12
2013-3-24,46.2,37.0,30.7,21.1,18.0,15.3,60,46,35,29.23,29.06,16,3,16,0.00
2013-3-25,45.1,35.8,27.0,29.1,21.2,16.9,82,57,39,29.21,29.03,16,2,16,0.00
2013-3-26,47.8,38.7,30.0,21.9,18.7,15.7,60,45,32,29.15,28.97,17,3,17,0.00
2013-3-27,42.8,37.3,31.5,34.3,26.5,17.9,91,66,46,29.26,29.09,17,2,17,0.12
2013-3-28,50.9,41.0,33.6,38.2,29.5,22.6,94,68,37,29.35,29.23,12,1,12,0.00
2013-3-29,55.0,47.2,34.0,31.6,25.4,20.9,68,43,35,29.38,29.32,17,2,17,0.00
2013-3-30,55.8,42.1,31.1,30.4,20.9,9.5,80,47,25,29.47,29.35,16,2,16,0.00
2013-3-31,52.9,39.9,25.3,31.8,20.3,11.2,69,48,26,29.47,29.23,30,3,30,0.00
2013-4-1,51.4,42.4,33.4,44.5,35.5,14.9,97,78,46,29.23,28.88,18,5,18,0.47
2013-4-2,39.2,31.8,26.2,14.9,10.6,7.5,54,41,31,29.18,29.03,31,7,31,0.04
2013-4-3,43.3,34.3,28.0,13.6,10.4,6.8,53,37,29,29.35,29.12,37,10,37,0.00
2013-4-4,52.0,38.3,28.6,25.6,13.4,6.2,60,37,21,29.53,29.32,26,8,26,0.00
2013-4-5,56.7,44.1,36.5,27.1,22.7,15.7,60,44,29,29.32,29.03,26,6,26,0.00
2013-4-6,42.4,33.8,27.0,16.7,6.8,2.3,44,32,23,29.68,29.15,26,6,26,0.00
2013-4-7,46.6,36.8,24.6,35.3,18.1,2.0,73,47,34,29.68,29.32,41,7,41,0.00
2013-4-8,62.8,49.0,36.5,41.9,30.9,23.6,90,54,28,29.50,29.23,20,4,20,0.00
2013-4-9,45.0,41.7,38.3,43.6,37.7,26.4,96,87,58,29.50,29.23,12,1,12,0.28
2013-4-10,58.3,45.9,38.3,46.6,40.6,32.3,98,84,43,29.35,29.23,17,3,17,0.16
2013-4-11,55.8,44.2,36.0,43.9,32.6,8.8,98,71,26,29.53,29.20,17,1,17,0.00
2013-4-12,38.1,34.6,33.1,31.6,18.9,8.6,93,56,32,29.59,29.23,15,1,15,0.12
2013-4-13,47.7,38.3,33.1,40.9,32.9,29.8,97,82,51,29.26,29.15,8,0,8,0.12
2013-4-14,50.5,42.6,36.1,42.1,35.5,28.8,95,77,52,29.50,29.23,11,0,11,0.12
2013-4-15,53.8,37.0,30.6,35.9,28.7,25.3,84,73,41,29.77,29.50,20,2,20,0.00
2013-4-16,55.6,47.0,40.3,46.5,35.7,28.6,93,67,38,29.77,29.29,29,8,29,0.00
2013-4-17,63.3,52.4,39.6,47.4,28.5,15.6,90,44,25,29.68,29.26,25,2,25,0.00
2013-4-18,51.3,42.7,32.4,32.7,21.5,14.1,59,44,28,29.80,29.50,18,1,18,0.00
2013-4-19,66.7,55.4,46.4,56.9,49.3,32.8,98,81,56,29.50,29.03,38,8,38,0.00
2013-4-20,59.2,53.3,43.2,58.6,40.6,19.0,98,68,30,29.44,28.91,35,6,35,0.31
2013-4-21,52.7,42.5,33.3,22.1,16.4,9.9,44,35,26,29.97,29.44,17,3,17,0.00
2013-4-22,53.6,39.6,28.2,24.6,17.3,9.0,68,42,26,30.06,29.88,20,3,20,0.00
2013-4-23,45.0,37.4,27.9,40.8,31.0,21.4,95,78,57,29.88,29.15,14,2,14,0.00
2013-4-24,58.1,48.8,41.9,53.5,45.3,40.6,98,88,68,17.72,17.72,16,1,16,0.20
2013-4-25,65.7,53.7,43.2,55.9,34.4,18.2,97,55,25,17.72,17.72,26,3,26,0.04
2013-4-26,61.7,48.0,33.6,31.6,24.9,19.8,66,42,27,17.72,17.72,22,3,22,0.00
2013-4-27,62.4,46.2,31.5,37.3,30.6,24.5,87,58,32,17.72,17.72,17,2,17,0.00
2013-4-28,69.1,51.2,35.2,46.4,30.9,24.9,91,52,24,17.72,17.72,22,2,22,0.00
2013-4-29,65.5,50.0,35.4,41.2,33.7,27.7,85,57,25,17.72,17.72,21,2,21,0.00
2013-4-30,69.6,52.1,36.3,48.6,33.6,26.0,94,57,24,17.72,17.72,20,2,20,0.00
2013-5-1,71.4,53.5,34.3,40.4,29.0,19.9,83,45,20,17.72,17.72,17,2,17,0.00
2013-5-2,65.1,51.1,38.8,44.1,33.8,27.2,87,54,34,17.72,17.72,20,2,20,0.00
2013-5-3,70.0,51.4,37.0,40.5,34.8,30.5,85,56,33,17.72,17.72,16,3,16,0.00
2013-5-4,67.6,48.7,36.5,40.8,33.0,27.0,88,59,25,17.72,17.72,22,2,22,0.00
2013-5-5,66.4,53.1,39.9,36.3,32.0,28.9,80,47,30,17.72,17.72,12,4,12,0.00
2013-5-6,67.8,49.3,33.8,47.0,37.4,30.9,94,69,33,17.72,17.72,22,3,22,0.00
2013-5-7,74.8,56.4,44.2,55.8,45.3,38.3,98,73,28,17.72,17.72,26,4,26,0.00
2013-5-8,74.3,59.8,46.8,61.1,50.7,45.1,96,75,41,17.72,17.72,21,3,21,0.00
2013-5-9,59.4,55.0,52.2,58.5,53.7,51.2,98,95,91,17.72,17.72,12,1,12,0.20
2013-5-10,73.4,59.4,49.5,62.6,50.8,45.8,98,78,43,17.72,17.72,14,2,14,0.00
2013-5-11,60.4,55.5,50.2,59.2,54.2,49.0,98,95,84,17.72,17.72,22,3,22,0.20
2013-5-12,63.0,57.0,48.6,61.8,55.2,40.8,98,94,71,17.72,17.72,12,0,12,0.08
2013-5-13,59.5,50.0,40.6,40.8,28.8,22.6,89,47,28,17.72,17.72,26,6,26,0.00
2013-5-14,60.8,49.5,41.7,32.4,27.1,24.4,59,43,29,17.72,17.72,17,1,17,0.00
2013-5-15,65.1,50.8,38.1,48.5,33.1,23.0,97,57,23,17.72,17.72,22,5,22,0.24
2013-5-16,75.9,60.3,48.6,58.4,44.8,33.1,98,64,24,17.72,17.72,20,2,20,0.00
2013-5-17,65.1,55.4,45.0,41.7,34.4,28.9,70,47,32,17.72,17.72,18,2,18,0.00
2013-5-18,66.4,51.1,38.7,44.3,36.1,32.5,87,60,33,17.72,17.72,16,2,16,0.00
2013-5-19,66.0,52.3,42.3,47.2,42.1,38.1,93,71,40,17.72,17.72,12,2,12,0.00
2013-5-20,71.6,57.5,49.5,63.0,53.0,47.2,98,87,51,17.72,17.72,16,1,16,0.79
2013-5-21,55.2,51.0,48.4,53.3,50.1,47.8,98,97,93,17.72,17.72,12,0,12,0.75
2013-5-22,56.1,51.1,48.2,55.6,49.6,47.2,98,95,84,17.72,17.72,10,0,10,0.59
2013-5-23,63.3,56.6,48.4,61.7,54.6,47.2,98,93,82,17.72,17.72,17,2,17,0.00
2013-5-24,63.0,59.3,50.4,62.4,58.7,49.8,98,98,95,17.72,17.72,22,2,22,1.30
2013-5-25,52.3,49.7,48.4,51.8,49.1,47.8,98,98,98,17.72,17.72,15,2,15,0.16
2013-6-16,61.7,60.6,59.0,53.6,52.5,51.5,78,75,70,0.00,0.00,0,0,0,0.16
2013-6-17,81.7,65.0,55.0,62.1,55.9,48.9,95,76,34,0.00,0.00,17,1,17,0.08
2013-6-18,69.1,61.9,57.0,63.0,53.5,44.9,97,76,44,0.00,0.00,8,0,8,0.00
2013-8-27,84.7,72.0,63.1,63.2,60.1,57.8,90,68,42,29.56,0.00,11,0,11,0.00
2013-8-28,83.8,69.0,60.8,70.4,61.1,56.0,96,78,41,29.65,29.53,0,0,0,0.16
2013-8-29,67.1,63.0,55.2,63.6,58.2,51.1,98,85,64,29.77,29.65,0,0,0,0.00
2013-8-30,78.4,65.2,52.7,62.8,57.5,51.0,97,78,49,29.65,29.41,12,2,12,0.00
2013-8-31,82.4,69.6,64.0,73.4,64.9,61.4,97,86,57,29.47,29.41,8,0,8,0.43
2013-9-1,82.2,72.0,67.1,75.1,66.2,58.2,97,84,44,29.59,29.41,12,0,12,0.04
2013-9-2,68.2,65.1,61.7,67.1,64.3,61.1,98,97,93,29.59,29.41,17,1,17,2.32
2013-9-14,61.5,56.7,53.4,50.9,49.7,48.2,83,78,65,29.62,0.00,5,0,5,2.32
2013-9-15,68.5,56.6,47.8,54.0,46.5,39.3,95,72,36,29.74,29.62,14,2,14,2.32
2013-9-16,64.8,55.3,43.9,57.7,48.1,30.7,96,78,53,29.85,29.56,12,0,12,2.32
2013-9-17,62.6,50.1,39.6,44.8,36.3,30.5,86,62,35,29.97,29.85,11,0,11,2.32
2013-9-18,71.1,54.8,42.1,56.8,42.1,37.1,95,67,31,29.91,29.74,15,2,15,2.32
2013-9-19,75.4,57.7,45.3,57.6,45.2,41.0,95,68,32,29.74,29.65,12,1,12,2.32
2013-9-20,50.9,48.8,47.1,46.1,45.7,44.6,93,89,83,29.68,29.65,0,0,0,0.00
2013-9-23,54.1,51.1,49.5,38.6,35.4,33.4,66,55,46,29.53,29.50,12,1,12,0.00
2013-9-24,54.3,49.7,43.7,44.0,38.8,34.3,80,66,52,29.53,29.44,16,1,16,0.00
2013-9-25,60.8,53.1,46.0,43.7,41.4,37.9,81,66,46,29.59,29.47,11,0,11,0.00
2013-9-26,64.4,55.0,46.0,48.1,44.0,40.9,90,68,44,29.77,29.59,11,0,11,0.00
2013-9-27,68.7,59.0,51.8,52.0,47.1,41.6,88,67,39,29.85,29.77,12,0,12,0.00
2013-9-28,72.9,56.8,48.4,58.3,47.4,40.0,96,75,34,29.94,29.85,10,0,10,0.00
2013-9-29,69.6,52.9,42.6,60.2,43.1,34.6,97,74,32,29.88,29.77,12,1,12,0.04
2013-9-30,51.3,47.2,42.6,49.4,45.7,41.6,96,95,93,29.77,29.71,0,0,3,0.00
2013-10-6,58.8,52.7,49.5,47.9,37.7,30.1,93,60,36,29.88,29.85,11,0,11,0.12
2013-10-7,66.6,58.8,49.1,66.0,58.1,47.7,98,97,93,29.85,29.47,29,4,29,0.28
2013-10-8,63.5,54.3,41.5,62.9,41.5,29.8,98,66,36,30.00,29.47,17,1,17,0.00
2013-10-9,61.3,47.3,37.6,47.0,35.0,30.9,91,66,36,30.09,29.97,15,1,15,0.00
2013-10-10,63.0,42.6,35.6,51.1,36.9,33.0,94,82,35,29.97,29.83,12,0,12,0.00
2013-10-11,68.4,54.9,44.6,58.1,46.9,40.6,97,78,37,29.83,29.74,8,0,8,0.00
2013-10-12,60.3,53.2,48.0,53.9,46.2,39.5,96,78,53,30.03,29.80,8,0,8,0.00
2013-10-13,59.2,52.2,41.7,48.4,41.2,33.7,89,69,42,30.09,30.00,12,1,12,0.00
2013-10-14,61.9,49.8,37.0,51.1,40.6,35.2,96,74,44,30.00,29.85,17,2,17,0.00
2013-10-15,67.3,55.8,48.4,58.0,47.4,42.5,96,76,44,29.91,29.83,10,0,10,0.00
2013-10-16,60.1,54.6,51.1,55.2,50.5,46.6,97,87,63,29.85,29.71,16,1,16,0.00
2013-10-29,40.3,32.5,28.2,21.2,18.6,12.3,74,58,32,29.94,29.88,0,0,0,0.00
2013-10-30,48.7,35.2,26.1,32.1,22.2,16.6,87,63,31,29.88,29.71,15,1,15,0.00
2013-10-31,58.3,43.3,27.1,57.7,38.7,21.7,98,84,62,29.80,29.35,22,2,22,0.31
2013-11-1,61.9,59.2,55.4,61.0,57.5,46.5,98,94,65,29.35,28.97,31,10,31,0.39
2013-11-2,63.9,50.9,41.7,49.6,41.9,34.9,95,75,35,29.23,29.15,15,3,15,0.00